[[{"header":{"parameterUnit":"m.s-1","parameterCategory":1,"la1":30.2991,"la2":30.254,"lo1":-89.0895,"lo2":-89.0444,"dy":0.0017,"dx":0.0017,"nx":28,"ny":28,"refTime":"2024-06-17T21:00:00:Z","depth":0,"parameterNumber":2,"parameterNumberName":"U-component_of_WINDS"},"data":[0,0,0,0,0,0,0,0,0,0,0,0,0,0,0,0,0,0,0,0,0,0,0,0,0,0,0,0,0,0,0,0,0,0,0,0,0,0,0,0,0,0,0,0,0,0,0,0,0,0,0,0,0,0,0,0,0,0,-9.4695,-9.4696,0,-9.4704,-9.4704,-9.4704,-9.4509,-9.4504,-9.4499,-9.4494,-9.4502,-9.4507,-9.4512,0,0,0,0,0,0,0,0,0,0,0,0,0,-9.4513,-9.4517,-9.4695,-9.4696,-9.4696,-9.4704,-9.4704,-9.4704,-9.451,-9.4504,-9.4497,-9.4491,-9.4501,-9.4507,-9.4513,0,0,0,0,0,0,0,0,0,0,0,0,0,-9.4564,-9.4519,-9.4695,-9.46,-9.4591,-9.4704,-9.4704,-9.4704,-9.4511,-9.4503,-9.4496,-9.4488,-9.4499,-9.4506,-9.4514,-9.4718,0,0,-9.4537,-9.454,0,0,0,0,0,0,0,0,-9.4561,-9.4571,-9.4614,-9.4607,-9.4597,-9.4597,-9.4642,-9.4708,-9.4513,-9.4542,-9.4493,-9.4484,-9.454,-9.4544,-9.4563,-9.4718,-9.4718,-9.4538,-9.4542,-9.4546,-9.4548,0,0,0,0,0,0,0,-9.4558,-9.4569,-9.4698,-9.4615,-9.4605,-9.4557,-9.4556,-9.4654,-9.4585,-9.4539,-9.4525,-9.4528,-9.4534,-9.4556,-9.4561,-9.4718,-9.4537,-9.4544,-9.4549,-9.4552,-9.5041,-9.5049,0,0,0,0,0,0,-9.4568,-9.4568,-9.4698,-9.4699,-9.456,-9.4567,-9.4565,-9.4605,-9.4583,-9.4572,-9.4535,-9.4519,-9.4547,-9.4553,-9.4561,-9.4797,-9.4546,-9.4553,-9.4557,-9.5033,-9.5043,-9.5052,0,0,0,0,0,0,-9.4564,-9.4581,-9.4698,-9.463,-9.4641,-9.4578,-9.4625,-9.461,-9.463,-9.458,-9.4567,-9.4569,-9.4541,-9.455,-9.468,-9.4794,-9.4556,-9.4563,-9.5023,-9.5036,-9.5048,-9.5271,0,0,0,0,0,0,-9.456,-9.4581,-9.4657,-9.4633,-9.4645,-9.4817,-9.4632,-9.4615,-9.4644,-9.4624,-9.4609,-9.4599,-9.4535,-9.467,-9.4688,-9.48,-9.4569,-9.5012,-9.5029,-9.5044,-9.5253,-9.529,-9.5321,0,0,0,0,0,-9.4554,-9.472,-9.4662,-9.4679,-9.4739,-9.4824,-9.4831,-9.4754,-9.4654,-9.4731,-9.4699,-9.46,-9.478,-9.4685,-9.4703,-9.482,-9.5005,-9.5024,-9.5042,-9.5238,-9.5283,-9.532,0,0,0,0,0,0,-9.4759,-9.4715,-9.465,-9.4813,-9.4824,-9.4791,-9.4884,-9.4804,-9.4842,-9.4821,-9.4724,-9.4723,-9.4868,-9.4857,-9.4752,-9.5016,-9.4875,-9.4898,-9.5017,-9.5059,-9.5093,-9.509,-9.4575,0,0,0,0,0,-9.4824,-9.4896,-9.4854,-9.5002,-9.501,-9.4948,-9.4981,-9.4921,-9.4928,-9.4931,-9.4909,-9.492,-9.4978,-9.5019,-9.507,-9.5252,-9.5246,-9.5342,-9.5376,-9.5405,-9.5425,-9.5519,-9.5561,-9.5114,-9.5114,-9.5114,0,0,-9.4957,-9.4942,-9.4993,-9.5043,-9.5043,-9.512,-9.4952,-9.5041,-9.5096,-9.4945,-9.5064,-9.505,-9.5055,-9.5212,-9.528,-9.5207,-9.5548,-9.5429,-9.5452,-9.5456,-9.5543,-9.5586,-9.5623,-9.5127,-9.5125,-9.5123,0,0,-9.5238,-9.5236,-9.5357,-9.5362,-9.5366,-9.5324,-9.5354,-9.5334,-9.5317,-9.5437,-9.5325,-9.5391,-9.5494,-9.5502,-9.552,-9.5809,-9.5719,-9.5829,-9.6005,-9.6098,-9.6133,-9.6164,-9.6265,-9.6302,-9.585,-9.5851,-9.5851,0,-9.5403,-9.5514,-9.543,-9.5526,-9.5551,-9.5419,-9.5542,-9.5551,-9.5572,-9.5592,-9.5512,-9.5639,-9.5634,-9.579,-9.5861,-9.5881,-9.5911,-9.5827,-9.6135,-9.6165,-9.6192,-9.6287,-9.6326,-9.5864,-9.5862,-9.5861,-9.586,0,-9.5715,-9.5794,-9.5893,-9.5916,-9.5953,-9.6062,-9.5995,-9.6043,-9.5981,-9.5947,-9.6071,-9.6061,-9.6107,-9.6141,-9.6082,-9.629,-9.6244,-9.6152,-9.6006,-9.6249,-9.6337,-9.6373,-9.5882,-9.5878,-9.5874,-9.5871,0,0,-9.6121,-9.61,-9.6137,-9.6145,-9.6142,-9.6201,-9.6306,-9.6351,-9.6393,-9.6414,-9.6497,-9.659,-9.6504,-9.6525,-9.6466,-9.6549,-9.6775,-9.6445,-9.6443,-9.6504,-9.7002,-9.7069,-9.7112,-9.6718,-9.6724,-9.673,-9.7,0,-9.6392,-9.6567,-9.6496,-9.6677,-9.6749,-9.6626,-9.6717,-9.6725,-9.6698,-9.6754,-9.6724,-9.679,-9.6673,-9.6684,-9.6761,-9.6731,-9.6873,-9.6711,-9.6793,-9.6797,-9.6791,-9.7158,-9.7229,-9.7485,-9.7034,-9.704,-9.7044,0,-9.6729,-9.6764,-9.6952,-9.6936,-9.6963,-9.7046,-9.7082,-9.7139,-9.7147,-9.7121,-9.7146,-9.7069,-9.717,-9.703,-9.7167,-9.7059,-9.7089,-9.708,-9.7088,-9.7089,-9.6932,-9.7166,-9.7565,-9.7602,-9.7098,-9.7093,-9.7089,0,-9.7003,-9.7097,-9.7221,-9.7233,-9.7219,-9.728,-9.7276,-9.7276,-9.7308,-9.7341,-9.7361,-9.7407,-9.743,-9.7468,-9.7405,-9.7309,-9.7552,-9.7406,-9.7532,-9.7533,-9.7584,-9.7581,-9.799,-9.7611,-9.7611,-9.761,-9.7609,0,-9.731,-9.743,-9.7344,-9.742,-9.7551,-9.747,-9.7601,-9.7585,-9.7586,-9.7657,-9.7556,-9.7625,-9.754,-9.7601,-9.7554,-9.7674,-9.7687,-9.7668,-9.7653,-9.7675,-9.7677,-9.769,-9.7669,-9.762,-9.7618,-9.7616,-9.7614,0,-9.7636,-9.7584,-9.771,-9.7687,-9.7685,-9.7782,-9.7761,-9.7831,-9.7798,-9.7889,-9.7906,-9.7854,-9.7921,-9.7864,-9.7929,-9.7897,-9.8056,-9.8018,-9.8054,-9.8041,-9.8169,-9.8157,-9.8597,-9.865,-9.8242,-9.8246,-9.8249,0,-9.7833,-9.7922,-9.7909,-9.7949,-9.7952,-9.8019,-9.8051,-9.7977,-9.8015,-9.8031,-9.8099,-9.8158,-9.82,-9.8313,-9.8281,-9.8331,-9.829,-9.8442,-9.8297,-9.8316,-9.8289,-9.8283,-9.829,-9.847,-9.8475,-9.8479,-9.8482,0,-9.8188,-9.8158,-9.8208,-9.8252,-9.8294,-9.8324,-9.8346,-9.8386,-9.8309,-9.8358,-9.8425,-9.8458,-9.8525,-9.8584,-9.8624,-9.862,-9.8539,-9.8529,-9.8559,-9.858,-9.8596,-9.8586,-9.813,-9.8517,-9.8514,-9.8511,-9.8509,-9.8508,-9.8452,-9.8525,-9.8527,-9.8588,-9.8597,-9.8621,-9.8685,-9.8661,-9.8715,-9.8763,-9.8717,-9.8798,-9.8805,-9.8849,-9.8856,-9.8919,-9.8856,-9.8902,-9.8912,-9.8924,-9.8941,-9.859,-9.8927,-9.8925,-9.8924,-9.8924,-9.8923,0,-9.8798,-9.8794,-9.8851,-9.8886,-9.8934,-9.8855,-9.8876,-9.8921,-9.8994,-9.9007,-9.9051,-9.9129,-9.9187,-9.9161,-9.9211,-9.9266,-9.923,-9.9282,-9.9275,-9.9275,-9.8996,-9.8962,-9.931,-9.931,-9.931,-9.931,-9.931,-9.931,-9.8984,-9.9102,-9.9074,-9.9197,-9.9192,-9.9271,-9.9289,-9.9311,-9.9321,-9.9412,-9.9459,-9.9443,-9.944,-9.949,-9.9539,-9.953,-9.9552,-9.9617,-9.9595,-9.9333,-9.9295,-9.9258,-9.9226,-9.9623,-9.9624,-9.9867,-9.987,-9.9871]},{"header":{"parameterUnit":"m.s-1","parameterCategory":1,"la1":30.2991,"la2":30.254,"lo1":-89.0895,"lo2":-89.0444,"dy":0.0017,"dx":0.0017,"nx":28,"ny":28,"refTime":"2024-06-17T21:00:00:Z","depth":0,"parameterNumber":3,"parameterNumberName":"V-component_of_WINDS"},"data":[0,0,0,0,0,0,0,0,0,0,0,0,0,0,0,0,0,0,0,0,0,0,0,0,0,0,0,0,0,0,0,0,0,0,0,0,0,0,0,0,0,0,0,0,0,0,0,0,0,0,0,0,0,0,0,0,0,0,0.586,0.5861,0,0.5911,0.5912,0.5912,0.598,0.5981,0.5982,0.5983,0.6032,0.6033,0.6033,0,0,0,0,0,0,0,0,0,0,0,0,0,0.5821,0.5821,0.586,0.5861,0.5861,0.5911,0.5912,0.5912,0.5979,0.5981,0.5982,0.5983,0.6032,0.6033,0.6033,0,0,0,0,0,0,0,0,0,0,0,0,0,0.5851,0.5821,0.586,0.5901,0.5905,0.5911,0.5912,0.5912,0.5979,0.5981,0.5982,0.5984,0.6032,0.6033,0.6033,0.6002,0,0,0.6034,0.6034,0,0,0,0,0,0,0,0,0.5849,0.5853,0.5894,0.5898,0.5903,0.5941,0.5916,0.5942,0.5979,0.5951,0.5983,0.5985,0.6,0.6003,0.6009,0.6004,0.6006,0.6034,0.6035,0.6035,0.6035,0,0,0,0,0,0,0,0.5847,0.5851,0.588,0.5895,0.59,0.5917,0.5923,0.5921,0.5965,0.5953,0.5958,0.5964,0.6003,0.6009,0.6011,0.6007,0.6034,0.6035,0.6035,0.6035,0.5981,0.598,0,0,0,0,0,0,0.5839,0.5848,0.5879,0.5882,0.588,0.5916,0.5923,0.5927,0.5966,0.5973,0.5962,0.5967,0.6007,0.601,0.6013,0.598,0.6035,0.6035,0.6035,0.5983,0.5981,0.5979,0,0,0,0,0,0,0.5838,0.5841,0.5877,0.5867,0.5872,0.5915,0.5919,0.5927,0.5933,0.5972,0.598,0.596,0.6009,0.6012,0.6005,0.5983,0.6035,0.6036,0.5985,0.5982,0.598,0.5914,0,0,0,0,0,0,0.5837,0.584,0.5829,0.5866,0.5873,0.5867,0.5917,0.5927,0.5933,0.594,0.5972,0.5979,0.601,0.6004,0.6005,0.5984,0.6036,0.5987,0.5984,0.5981,0.5918,0.5909,0.5902,0,0,0,0,0,0.5835,0.5807,0.5828,0.5831,0.5859,0.5866,0.587,0.5907,0.5931,0.592,0.5946,0.5978,0.5985,0.6002,0.6005,0.5983,0.5989,0.5985,0.5981,0.5922,0.5911,0.5902,0,0,0,0,0,0,0.5765,0.5813,0.5836,0.5819,0.5838,0.5877,0.5864,0.5894,0.5905,0.591,0.5955,0.5962,0.5949,0.5966,0.5984,0.5957,0.5992,0.5988,0.5946,0.5936,0.5928,0.5924,0.6036,0,0,0,0,0,0.5748,0.575,0.5791,0.5772,0.5781,0.5821,0.5825,0.5852,0.5873,0.5881,0.5906,0.5925,0.5932,0.5935,0.5943,0.5921,0.593,0.5908,0.59,0.5893,0.5889,0.588,0.5871,0.5967,0.5967,0.5967,0,0,0.5712,0.5738,0.5736,0.5759,0.5777,0.5778,0.5827,0.5825,0.5827,0.5881,0.5876,0.5895,0.5919,0.5904,0.5899,0.5918,0.5865,0.5888,0.5882,0.5882,0.5876,0.5866,0.5858,0.5964,0.5965,0.5965,0,0,0.5647,0.5667,0.5654,0.5672,0.5699,0.5726,0.5723,0.5758,0.5774,0.577,0.5811,0.5813,0.5823,0.5839,0.5848,0.5792,0.5822,0.5794,0.5751,0.5742,0.5734,0.5728,0.5708,0.5701,0.579,0.579,0.579,0,0.5598,0.5602,0.5644,0.5641,0.565,0.5701,0.5689,0.5703,0.5731,0.5736,0.5757,0.5772,0.5792,0.5783,0.5769,0.5775,0.5773,0.579,0.5732,0.5726,0.572,0.5703,0.5695,0.5786,0.5787,0.5787,0.5787,0,0.5542,0.5544,0.553,0.5558,0.5566,0.5558,0.5598,0.5601,0.5628,0.5654,0.565,0.5675,0.569,0.5691,0.5716,0.5685,0.5696,0.5724,0.576,0.5707,0.5691,0.5684,0.5781,0.5782,0.5783,0.5784,0,0,0.5432,0.5485,0.5479,0.5493,0.5527,0.553,0.5525,0.5541,0.5543,0.5561,0.5558,0.5567,0.5594,0.5604,0.5633,0.5625,0.558,0.5654,0.5655,0.5639,0.5549,0.5528,0.5519,0.5601,0.56,0.5599,0.5547,0,0.5374,0.5369,0.5407,0.5392,0.5395,0.5445,0.5441,0.5462,0.5485,0.5492,0.5518,0.5524,0.5558,0.5565,0.556,0.5587,0.5562,0.5591,0.5599,0.5598,0.5591,0.5511,0.5488,0.5438,0.5541,0.554,0.5539,0,0.5304,0.5321,0.5306,0.5343,0.5346,0.5342,0.5361,0.5366,0.5391,0.5409,0.5423,0.5456,0.5454,0.5489,0.5488,0.5507,0.5512,0.5526,0.5525,0.5527,0.5565,0.551,0.5422,0.5415,0.553,0.553,0.5531,0,0.5227,0.5245,0.5239,0.5249,0.5292,0.5288,0.5306,0.5333,0.5341,0.5358,0.5364,0.5379,0.5387,0.5399,0.5436,0.5458,0.5431,0.5469,0.5446,0.5445,0.5437,0.5437,0.5349,0.5441,0.5441,0.5441,0.5441,0,0.5157,0.5146,0.5205,0.5201,0.519,0.5235,0.5224,0.5247,0.5271,0.5273,0.5316,0.5317,0.5366,0.5372,0.5401,0.5396,0.5399,0.5414,0.5422,0.541,0.5408,0.5414,0.5418,0.5439,0.5439,0.544,0.544,0,0.5068,0.5106,0.5103,0.5146,0.5156,0.5147,0.5183,0.5181,0.5209,0.5211,0.5214,0.5257,0.5267,0.5305,0.5324,0.5343,0.5329,0.5344,0.5321,0.5326,0.5301,0.5303,0.5213,0.5204,0.5301,0.53,0.53,0,0.5021,0.5014,0.5056,0.5061,0.5078,0.5084,0.5094,0.5138,0.5146,0.5175,0.517,0.5184,0.5197,0.5211,0.5244,0.5259,0.5275,0.5242,0.5277,0.5266,0.5275,0.5275,0.5275,0.5234,0.5233,0.5232,0.5231,0,0.4934,0.4954,0.4965,0.4984,0.4994,0.501,0.503,0.5031,0.5081,0.5087,0.5099,0.5109,0.5129,0.5143,0.5164,0.5182,0.5215,0.522,0.5216,0.5204,0.519,0.5198,0.53,0.5222,0.5223,0.5224,0.5224,0.5224,0.4864,0.4861,0.4891,0.4903,0.4923,0.494,0.4941,0.497,0.4981,0.5001,0.5027,0.5036,0.5063,0.5095,0.5111,0.5119,0.5137,0.513,0.5128,0.5126,0.5121,0.519,0.5123,0.5123,0.5123,0.5123,0.5124,0,0.478,0.4802,0.4813,0.4839,0.4849,0.4881,0.4904,0.491,0.4917,0.4941,0.4954,0.4967,0.4981,0.5016,0.5033,0.5032,0.5048,0.5035,0.5036,0.504,0.5103,0.5105,0.5023,0.5023,0.5023,0.5023,0.5023,0.5023,0.4737,0.4734,0.4758,0.4765,0.4788,0.4797,0.4808,0.4825,0.4844,0.4858,0.487,0.4893,0.4921,0.4941,0.4956,0.4966,0.497,0.4952,0.4967,0.5025,0.5035,0.5044,0.5047,0.4953,0.4953,0.4904,0.4903,0.4903]}]]